EW8326 Weather Reports


time (UTC)temp
F
wind
direction
speed
knots
gust
knots
rain 1hr
in
rain 24hr
in
rain mn
in
humidity
%
barometer
mb
20260507231902 32 135 0.9 1.7 0.00 0.00 0.00 84 1014.2
20260507231001 32 135 0.9 1.7 0.00 0.00 0.00 84 1014.2
20260507225202 32 135 0.9 1.7 0.00 0.00 0.00 84 1014.2
20260507224302 33 135 0.9 1.7 0.00 0.00 0.00 84 1014.2
20260507222501 33 135 0.9 1.7 0.00 0.00 0.00 84 1014.2
20260507221603 33 135 0.9 1.7 0.00 0.00 0.00 84 1014.2
20260507215802 33 135 0.9 1.7 0.00 0.00 0.00 84 1014.0
20260507214903 34 135 1.7 1.7 0.00 0.00 0.00 84 1014.1
20260507214001 35 120 0.9 1.7 0.00 0.00 0.00 84 1014.1
20260507213103 35 130 0.9 1.7 0.00 0.00 0.00 84 1014.1
20260507212201 35 135 1.7 1.7 0.00 0.00 0.00 84 1014.2
20260507211301 35 135 1.7 1.7 0.00 0.00 0.00 84 1013.9
20260507210401 36 135 0.9 1.7 0.00 0.00 0.00 84 1014.0
20260507205502 37 135 0.9 1.7 0.00 0.00 0.00 84 1013.8
20260507204601 38 148 0.9 0.9 0.00 0.00 0.00 84 1013.8
20260507202801 38 143 0.9 1.7 0.00 0.00 0.00 84 1013.7
20260507201902 39 142 0.9 1.7 0.00 0.00 0.00 84 1013.7
20260507201003 40 161 0.9 1.7 0.00 0.00 0.00 84 1013.6
20260507195203 43 183 0.9 2.6 0.00 0.00 0.00 84 1013.4
20260507193402 45 212 2.6 3.5 0.00 0.00 0.00 84 1013.3
20260507190703 49 242 4.3 5.2 0.00 0.00 0.00 84 1013.1
20260507185801 50 222 5.2 10.4 0.00 0.00 0.00 84 1013.1
20260507184901 51 242 4.3 6.1 0.00 0.00 0.00 84 1012.8
20260507184001 52 228 4.3 7.0 0.00 0.00 0.00 84 1012.8
20260507183102 52 214 3.5 6.1 0.00 0.00 0.00 84 1012.9
20260507182203 53 228 5.2 7.8 0.00 0.00 0.00 84 1012.8
20260507181303 53 232 6.1 8.7 0.00 0.00 0.00 84 1012.7
20260507180402 54 232 4.3 7.8 0.00 0.00 0.00 84 1012.7
20260507174601 54 233 4.3 6.1 0.00 0.00 0.00 84 1012.4
20260507173702 54 187 4.3 8.7 0.00 0.00 0.00 84 1012.2
20260507172801 55 204 4.3 7.0 0.00 0.00 0.00 84 1012.2
20260507171902 54 191 4.3 5.2 0.00 0.00 0.00 84 1012.2
20260507171001 54 218 4.3 6.1 0.00 0.00 0.00 84 1012.2
20260507165202 56 218 4.3 7.8 0.00 0.00 0.00 84 1011.9
20260507162501 57 218 4.3 7.8 0.00 0.00 0.00 84 1011.9
20260507161601 58 216 4.3 7.8 0.00 0.00 0.00 84 1011.9
20260507160703 58 261 4.3 4.3 0.00 0.00 0.00 84 1011.8
20260507155801 58 212 5.2 8.7 0.00 0.00 0.00 84 1011.9
20260507154903 58 204 5.2 8.7 0.00 0.00 0.00 84 1011.8
20260507154001 59 213 6.1 7.8 0.00 0.00 0.00 84 1011.8
20260507151302 59 213 4.3 7.8 0.00 0.00 0.00 84 1011.6
20260507150401 59 211 3.5 7.0 0.00 0.00 0.00 84 1011.5
20260507145503 59 228 4.3 7.0 0.00 0.00 0.00 84 1011.4
20260507144601 59 275 2.6 4.3 0.00 0.00 0.00 84 1011.5
20260507142803 59 244 5.2 7.0 0.00 0.00 0.00 84 1011.6
20260507141901 58 315 2.6 3.5 0.00 0.00 0.00 84 1011.5
20260507141003 58 278 4.3 4.3 0.00 0.00 0.00 84 1011.4
20260507135201 57 322 2.6 5.2 0.00 0.00 0.00 84 1011.3
20260507134301 56 325 3.5 7.0 0.00 0.00 0.00 84 1011.5
20260507133401 56 238 5.2 9.6 0.00 0.00 0.00 84 1011.5
20260507131603 59 213 3.5 5.2 0.00 0.00 0.00 84 1011.3
20260507130701 59 346 4.3 5.2 0.00 0.00 0.00 84 1011.3
20260507125803 59 198 3.5 4.3 0.00 0.00 0.00 84 1011.3
20260507124901 58 215 4.3 5.2 0.00 0.00 0.00 84 1011.3
20260507124002 57 241 4.3 7.0 0.00 0.00 0.00 84 1011.4
20260507123101 58 259 3.5 5.2 0.00 0.00 0.00 84 1011.3
20260507122202 56 167 2.6 3.5 0.00 0.00 0.00 84 1011.3
20260507121301 55 297 3.5 4.3 0.00 0.00 0.00 84 1011.3
20260507120401 55 356 4.3 7.0 0.00 0.00 0.00 84 1011.2
20260507115502 55 359 5.2 7.0 0.00 0.00 0.00 84 1011.3
20260507114601 56 239 3.5 5.2 0.00 0.00 0.00 84 1011.4
20260507113701 55 195 2.6 3.5 0.00 0.00 0.00 84 1011.3
20260507112801 54 259 3.5 7.0 0.00 0.00 0.00 84 1011.3
20260507111902 53 323 5.2 9.6 0.00 0.00 0.00 84 1011.6
20260507111001 53 323 4.3 7.0 0.00 0.00 0.00 84 1011.4
20260507104301 54 195 3.5 5.2 0.00 0.00 0.00 84 1011.4
20260507103402 55 202 2.6 3.5 0.00 0.00 0.00 84 1011.3
20260507102501 53 278 3.5 6.1 0.00 0.00 0.00 84 1011.4
20260507101602 52 281 3.5 5.2 0.00 0.00 0.00 84 1011.4
20260507100701 51 224 2.6 7.0 0.00 0.00 0.00 84 1011.3
20260507095801 51 245 2.6 6.1 0.00 0.00 0.00 84 1011.2
20260507094901 51 191 1.7 3.5 0.00 0.00 0.00 84 1011.0
20260507094001 50 333 3.5 6.1 0.00 0.00 0.00 84 1011.1
20260507093101 49 342 3.5 7.0 0.00 0.00 0.00 84 1011.1
20260507092203 49 2 3.5 4.3 0.00 0.00 0.00 84 1011.2
20260507091301 48 332 3.5 4.3 0.00 0.00 0.00 84 1011.1
20260507085501 47 344 4.3 7.0 0.00 0.00 0.00 84 1011.3
20260507084601 46 263 3.5 7.0 0.00 0.00 0.00 84 1011.3
20260507083701 46 320 4.3 7.8 0.00 0.00 0.00 84 1011.3
20260507081902 45 9 5.2 7.0 0.00 0.00 0.00 84 1011.1
20260507081001 45 196 2.6 5.2 0.00 0.00 0.00 84 1011.0
20260507075201 44 322 4.3 5.2 0.00 0.00 0.00 84 1010.9
20260507073401 42 333 3.5 5.2 0.00 0.00 0.00 84 1010.8
20260507072503 42 13 4.3 6.1 0.00 0.00 0.00 84 1010.7
20260507070702 41 325 4.3 7.8 0.00 0.00 0.00 84 1010.7
20260507065801 40 240 3.5 7.8 0.00 0.00 0.00 84 1010.6
20260507064901 40 228 2.6 5.2 0.00 0.00 0.00 84 1010.6
20260507063101 39 332 5.2 7.0 0.00 0.00 0.00 84 1010.5
20260507062201 38 326 4.3 6.1 0.00 0.00 0.00 84 1010.4
20260507060401 37 336 7.0 8.7 0.00 0.00 0.00 84 1010.3
20260507055503 37 342 7.0 9.6 0.00 0.00 0.00 84 1010.2
20260507054601 37 340 7.0 9.6 0.00 0.00 0.00 84 1010.2
20260507053701 37 350 7.0 9.6 0.00 0.00 0.00 84 1010.1
20260507052801 36 345 4.3 6.1 0.00 0.00 0.00 84 1009.9
20260507051901 35 350 3.5 5.2 0.00 0.00 0.00 84 1010.0
20260507051001 34 251 2.6 5.2 0.00 0.00 0.00 84 1009.9
20260507045201 33 238 2.6 5.2 0.00 0.00 0.00 84 1009.9
20260507044302 33 294 2.6 4.3 0.00 0.00 0.00 84 1009.9
20260507043401 33 356 2.6 3.5 0.00 0.00 0.00 84 1009.8
20260507042501 32 338 1.7 3.5 0.00 0.00 0.00 84 1009.9
20260507041601 32 188 1.7 2.6 0.00 0.00 0.00 84 1009.7
20260507040702 32 225 1.7 2.6 0.00 0.00 0.00 84 1009.8
20260507035801 31 208 1.7 2.6 0.00 0.00 0.00 84 1009.6
20260507034901 31 161 1.7 3.5 0.00 0.00 0.00 84 1009.4
20260507033101 32 179 2.6 5.2 0.00 0.00 0.00 84 1009.2
20260507032201 32 201 2.6 4.3 0.00 0.00 0.00 84 1009.4
20260507024601 32 185 1.7 4.3 0.00 0.00 0.00 84 1009.2
20260507023702 33 334 1.7 3.5 0.00 0.00 0.00 84 1009.1
20260507022801 33 200 1.7 2.6 0.00 0.00 0.00 84 1009.0
20260507021903 33 238 1.7 2.6 0.00 0.00 0.00 84 1009.1
20260507021001 33 218 1.7 2.6 0.00 0.00 0.00 84 1009.0
20260507015201 34 254 1.7 3.5 0.00 0.00 0.00 84 1009.0
20260507014303 34 239 1.7 1.7 0.00 0.00 0.00 84 1008.9
20260507013401 35 192 1.7 4.3 0.00 0.00 0.00 84 1009.2
20260507012501 35 330 3.5 6.1 0.00 0.00 0.00 84 1008.9
20260507011601 34 327 4.3 7.8 0.00 0.00 0.00 84 1008.9
20260507010701 34 151 1.7 1.7 0.00 0.00 0.00 84 1008.7
20260507005801 34 158 2.6 3.5 0.00 0.00 0.00 84 1008.8
20260507004903 33 166 1.7 3.5 0.00 0.00 0.00 84 1008.6
20260507004001 34 158 1.7 3.5 0.00 0.00 0.00 84 1008.6
20260507003101 34 58 2.6 4.3 0.00 0.00 0.00 84 1008.5
20260507002201 35 353 4.3 9.6 0.00 0.00 0.00 84 1008.5
20260507001301 35 334 3.5 7.0 0.00 0.00 0.00 84 1008.5
20260507000401 36 341 4.3 5.2 0.00 0.00 0.00 84 1008.6
20260506235501 36 341 4.3 6.1 0.00 0.00 0.00 84 1008.4
20260506234601 36 332 4.3 6.1 0.00 0.00 0.00 84 1008.5